This is the latest recevied weather packets stored in our database for station/object AB8DT-10. If no packets are shown the sender has not sent any weather packets the latest 10 day(s).
| Time | Temp. | Humidity | Pressure | Rain* | Wind** | Luminosity | Snow |
|---|---|---|---|---|---|---|---|
| 1777143134 | 17.22° C | 58% | 0 hPa | 0 mm | - | - | - |
| 1777142834 | 16.67° C | 57% | 0 hPa | 0 mm | - | - | - |
| 1777142534 | 16.67° C | 58% | 0 hPa | 0 mm | - | - | - |
| 1777142234 | 16.67° C | 59% | 0 hPa | 0 mm | - | - | - |
| 1777141934 | 16.67° C | 59% | 0 hPa | 0 mm | - | - | - |
| 1777141634 | 16.67° C | 60% | 0 hPa | 0 mm | - | - | - |
| 1777141334 | 16.67° C | 59% | 0 hPa | 0 mm | - | - | - |
| 1777141034 | 16.67° C | 61% | 0 hPa | 0 mm | - | - | - |
| 1777140734 | 16.11° C | 59% | 0 hPa | 0 mm | - | - | - |
| 1777140434 | 16.11° C | 61% | 0 hPa | 0 mm | - | - | - |
| 1777140134 | 16.11° C | 63% | 0 hPa | 0 mm | - | - | - |
| 1777139834 | 16.11° C | 61% | 0 hPa | 0 mm | - | - | - |
| 1777139534 | 15.56° C | 61% | 0 hPa | 0 mm | - | - | - |
| 1777139234 | 15.56° C | 62% | 0 hPa | 0 mm | - | - | - |
| 1777138934 | 15.56° C | 62% | 0 hPa | 0 mm | - | - | - |
| 1777138634 | 15.56° C | 60% | 0 hPa | 0 mm | - | - | - |
| 1777138334 | 15.56° C | 63% | 0 hPa | 0 mm | - | - | - |
| 1777138034 | 15.56° C | 64% | 0 hPa | 0 mm | - | - | - |
| 1777137734 | 15.56° C | 60% | 0 hPa | 0 mm | - | - | - |
| 1777137434 | 15.56° C | 64% | 0 hPa | 0 mm | - | - | - |
| 1777137134 | 15.56° C | 61% | 0 hPa | 0 mm | - | - | - |
| 1777136834 | 15.56° C | 61% | 0 hPa | 0 mm | - | - | - |
| 1777136534 | 15° C | 62% | 0 hPa | 0 mm | - | - | - |
| 1777136234 | 15° C | 63% | 0 hPa | 0 mm | - | - | - |
| 1777135934 | 15.56° C | 64% | 0 hPa | 0 mm | - | - | - |
* Rain latest hour (hover to see other rain measurements)
** Current wind speed in m/s (hover to see current wind gust speed)